Content
SEND FEEDBACK

Daily
Averages
Monthly
Summary
United States of America

ST. LOUIS - SAINT LOUIS UNIVERSITY, MISSOURI


Home > North America > United States > Missouri
Elevation: 580 feet     Latitude: 38 38N     Longitude: 090 14W

WEATHER
 
SELECT A DAY
Number of Records: 186,258;   Date Range: 1/1/95 - 8/30/14
 
SHARE

PRINT THIS DATA

[ ← Previous Day ]
WEATHER ALMANAC - FEBRUARY 4, 2013
[ Next Day → ]
[ °C ]   °F
Weather ElementAverageHighLow
Temperature40 °F59 °F (1:53 pm)26.1 °F (1:53 am)
Dewpoint27.9 °F35.6 °F (2:24 pm)18 °F (1:53 am)
Humidity63.6 %80 % (11:51 pm)41 % (1:53 pm)
Barometer29.89 in29.99 in (1:53 am)29.78 in (1:53 pm)
Wind Speed8.5 mph18.4 mph (3:53 pm)
Weather ElementAverage
Visibility10 mi
Wind DirectionWSW (235.2 °)

Weather ElementTotal
Precipitation---
Heating Degree Days22.5 (Base 65)
Averaged from 25 records on February 4, 2013
WEATHER CONDITIONS BREAKOUT
WIND DIRECTION BREAKOUT
WEATHER BY HOUR - FEBRUARY 4, 2013
[ °C ]   °F
Local TimeTemperatureDewpointHumidityBarometerVisibilityWind DirectionWind SpeedGust SpeedPrecipitationEventsConditions
1:53 AM26.1 °F18.0 °F71 %29.99 in10.0 miSSE (150°)8.1 mphClear
2:53 AM28.0 °F19.9 °F72 %29.96 in10.0 miSSE (150°)8.1 mphOvercast
4:53 AM32.0 °F23.0 °F69 %29.90 in10.0 miSSE (150°)8.1 mphOvercast
5:53 AM33.1 °F24.1 °F70 %29.88 in10.0 miSSE (150°)9.2 mphOvercast
6:53 AM34.0 °F25.0 °F70 %29.86 in10.0 miSSE (150°)9.2 mphOvercast
7:53 AM36.0 °F25.0 °F64 %29.85 in10.0 miCalmOvercast
8:53 AM36.0 °F28.0 °F73 %29.87 in10.0 miCalmOvercast
9:53 AM39.0 °F28.0 °F65 %29.86 in10.0 miCalmScattered Clouds
10:53 AM48.0 °F28.0 °F46 %29.85 in10.0 miSSW (200°)10.4 mphOvercast
11:53 AM52.0 °F34.0 °F50 %29.82 in10.0 miSSW (210°)8.1 mphMostly Cloudy
12:53 PM55.9 °F35.1 °F45 %29.80 in10.0 miSW (220°)5.8 mphClear
1:53 PM59.0 °F35.1 °F41 %29.78 in10.0 miVariable6.9 mphClear
2:24 PM55.4 °F35.6 °F47 %29.78 in10.0 miNNW (330°)12.7 mphClear
2:53 PM54.0 °F34.0 °F47 %29.80 in10.0 miNNW (330°)17.3 mphClear
3:53 PM52.0 °F33.1 °F49 %29.82 in10.0 miNNW (330°)18.4 mphClear
4:53 PM48.9 °F32.0 °F52 %29.83 in10.0 miNorth (350°)13.8 mphClear
5:53 PM44.1 °F30.9 °F60 %29.88 in10.0 miNorth (360°)12.7 mphClear
6:53 PM39.9 °F28.9 °F65 %29.92 in10.0 miNorth (350°)10.4 mphClear
7:53 PM37.0 °F27.0 °F67 %29.95 in10.0 miNorth (350°)8.1 mphClear
8:53 PM33.1 °F27.0 °F78 %29.99 in10.0 miNorth (350°)8.1 mphClear
9:50 PM32.0 °F24.8 °F75 %29.98 in10.0 miNorth (350°)9.2 mphMostly Cloudy
9:53 PM32.0 °F25.0 °F75 %29.99 in10.0 miNNW (340°)6.9 mphScattered Clouds
10:53 PM30.9 °F25.0 °F79 %29.99 in10.0 miNorth (360°)5.8 mphPartly Cloudy
11:51 PM30.2 °F24.8 °F80 %29.99 in10.0 miNorth (350°)8.1 mphMostly Cloudy
11:53 PM30.9 °F25.0 °F79 %29.99 in10.0 miNorth (350°)6.9 mphMostly Cloudy
Hourly data recorded from KCPS, located miles away from St. Louis - Saint Louis University, Missouri







STORIES FROM OUR PARTNERS